Simultaneous Nadir Overpasses (SNOs) Predictions

Prediction of SNOs between METOP-B and NOAA-19 Satellite Orbit:

Table of predicted SNOs for the next 14.0 days since TLE Epoch: 9/30/2016
Index Date (METOP-B) Time (METOP-B) Lat,Lon (METOP-B) SZA (METOP-B ) Date (NOAA-19) Time (NOAA-19) Lat,Lon (NOAA-19) SZA (NOAA-19 ) Distance(km) Time Diff (sec)
1 10/10/2016 21:11:03 76.76,-134.51 83.83 10/10/2016 21:09:55 76.78,-137.12 83.79 66.49 68
2 10/10/2016 22:01:52 -76.42, 31.54 96.53 10/10/2016 22:00:47 -76.44, 31.50 96.52 2.23 65
3 10/10/2016 22:52:32 76.43,-161.10 83.50 10/10/2016 22:51:49 76.44,-161.24 83.50 3.80 43
4 10/10/2016 23:43:14 -76.40, 6.14 96.52 10/10/2016 23:42:48 -76.40, 6.15 96.53 0.52 26
5 10/11/2016 00:33:54 76.41, 173.49 83.50 10/11/2016 00:33:50 76.40, 173.41 83.49 2.77 4
6
